Regional Weather Roundup
Issued by NWS Bismarck, ND

Home | Current Version | Previous Version | Text Only | Print | Product List | Glossary On
Versions: 1 2 3 4 5 6 7 8 9 10 11 12 13 14 15 16 17 18 19 20 21 22 23 24 25 26 27 28 29 30 31 32 33 34 35 36 37 38 39 40 41 42 43 44 45 46 47 48 49 50
000
ASUS43 KBIS 030710
RWRBIS

NWR BROADCAST TEXT
NATIONAL WEATHER SERVICE BISMARCK ND
100 AM CST SAT DEC 03 2016

NOTE: "FAIR" INDICATES FEW OR NO CLOUDS BELOW 12,000 FEET WITH NO
SIGNIFICANT WEATHER AND/OR OBSTRUCTIONS TO VISIBILITY.


CITY           SKY/WX    TMP DP  RH WIND       PRES   REMARKS
WILLISTON      CLEAR     24  20  84 S6        29.99F WCI  17
MINOT          CLEAR     22  20  92 SE6       30.06F WCI  14
MINOT AFB      CLOUDY    24  22  90 SE8       30.05F WCI  15
BISMARCK       CLEAR     24  22  91 S9        30.15F WCI  14
DICKINSON      CLEAR     16  14  92 S10       30.02F WCI   4
GARRISON         N/A     26  24  92 S10       30.08F WCI  16
HETTINGER ARPT NOT AVBL
JAMESTOWN      CLOUDY    24  20  84 S7        30.20F WCI  16
CARRINGTON     CLOUDY    21  19  93 MISG      30.19S
HAZEN          FAIR      23  19  86 S13       30.11F WCI  11
RUGBY            N/A     25  23  93 S9        30.12F WCI  15
STANLEY        FOG       23  25 100 S8        30.03F VSB 1/4 WCI  14
TIOGA          FAIR      23  23 100 S13       30.00F WCI  11
WATFORD CITY   FAIR      21  19  93 CALM      30.01F
$$

CITY           SKY/WX    TMP DP  RH WIND       PRES   REMARKS
GRAND FORKS    NOT AVBL
GRAND FORKS AF CLOUDY    28  20  72 SW9       30.23F WCI  20
DEVILS LAKE    CLOUDY    25  20  81 S12       30.18F WCI  14
FARGO          NOT AVBL
GRAFTON        CLOUDY    30  25  80 SW6       30.24F
GWINNER        CLOUDY    28  21  74 S10       30.27S WCI  19
LANGDON        CLOUDY    25  23  93 S13       30.16F WCI  13
ROLLA          CLOUDY    23  23 100 S12       30.11F WCI  12
$$

CITY           SKY/WX    TMP DP  RH WIND       PRES   REMARKS
MOBRIDGE       CLOUDY    29  24  82 S9        30.15F
BUFFALO          N/A     22  20  92 S8        29.97F WCI  12
RAPID CITY     CLEAR     21  17  84 SE7       30.09F WCI  12
GLASGOW        CLOUDY    26  20  77 S10       29.87F WCI  16
SIDNEY         CLEAR     20  18  92 S7        29.99F WCI  11
WOLF POINT     CLEAR     29  23  78 SW6       29.92F
GLENDIVE       CLEAR     21  18  88 S8        29.98F WCI  11
MILES CITY     CLEAR     23  18  81 S10       29.96F WCI  12
$$

CITY           SKY/WX    TMP DP  RH WIND       PRES   REMARKS
GREAT FALLS    CLEAR     30  20  66 SW26      29.85F WCI  16
REGINA         PTCLDY    23  21  93 SE17      29.86F WCI   9
ESTEVAN        PTCLDY    19  19 100 SE9       29.96F WCI   9
$$





USA.gov is the U.S. government's official web portal to all federal, state and local government web resources and services.